TVS2LU LKPR-EBBR

Flight info

Callsign TVS2LU
Flight time 1h 7m
Altitude 38000
Route BALTU DCT DONAD DCT RAPET Z93 KODUK DCT MARZA DCT TEKTU DCT TESGA DCT UMUPU T880 BATTY
Aircraft B738/M-SDE2E3FGHIRWXY/LB1

Departure

Time 2026-05-06 15:11
Airport Václav Havel Airport Prague (LKPR)

Arrival

Time 2026-05-06 16:18
Airport Brussels Airport (EBBR)
Time Latitude Longitude Altitude Speed Heading
2026-05-06 14:34 50.10484 14.26480 1169 ft 0 kts 34°
2026-05-06 14:34 50.10485 14.26480 1169 ft 0 kts 34°
2026-05-06 14:59 50.10476 14.26470 1173 ft 4 kts 36°
2026-05-06 15:00 50.10461 14.26455 1171 ft 4 kts 27°
2026-05-06 15:00 50.10445 14.26447 1168 ft 3 kts 308°
2026-05-06 15:00 50.10432 14.26476 1168 ft 4 kts 304°
2026-05-06 15:00 50.10421 14.26503 1170 ft 0 kts 304°
2026-05-06 15:05 50.10423 14.26498 1173 ft 2 kts 304°
2026-05-06 15:05 50.10436 14.26470 1171 ft 5 kts 304°
2026-05-06 15:05 50.10459 14.26417 1171 ft 7 kts 305°
2026-05-06 15:05 50.10491 14.26348 1173 ft 9 kts 305°
2026-05-06 15:06 50.10528 14.26264 1170 ft 10 kts 297°
2026-05-06 15:06 50.10537 14.26148 1173 ft 11 kts 262°
2026-05-06 15:06 50.10512 14.26034 1172 ft 11 kts 224°
2026-05-06 15:06 50.10449 14.26085 1174 ft 12 kts 129°
2026-05-06 15:07 50.10379 14.26227 1172 ft 21 kts 127°
2026-05-06 15:07 50.10278 14.26434 1175 ft 25 kts 127°
2026-05-06 15:07 50.10177 14.26641 1176 ft 23 kts 127°
2026-05-06 15:07 50.10082 14.26838 1186 ft 22 kts 127°
2026-05-06 15:08 50.09990 14.27030 1196 ft 22 kts 127°
2026-05-06 15:08 50.09900 14.27216 1200 ft 21 kts 127°
2026-05-06 15:08 50.09806 14.27383 1203 ft 20 kts 135°
2026-05-06 15:08 50.09710 14.27531 1205 ft 19 kts 134°
2026-05-06 15:09 50.09616 14.27675 1209 ft 19 kts 136°
2026-05-06 15:09 50.09527 14.27815 1212 ft 18 kts 135°
2026-05-06 15:09 50.09438 14.27947 1215 ft 17 kts 136°
2026-05-06 15:09 50.09355 14.28078 1214 ft 17 kts 134°
2026-05-06 15:10 50.09274 14.28202 1213 ft 16 kts 136°
2026-05-06 15:10 50.09174 14.28281 1210 ft 17 kts 185°
2026-05-06 15:10 50.09096 14.28168 1209 ft 16 kts 255°
2026-05-06 15:10 50.09131 14.27994 1209 ft 26 kts 306°
2026-05-06 15:11 50.09388 14.27457 1209 ft 98 kts 307°
2026-05-06 15:11 50.09921 14.26345 1243 ft 156 kts 305°
2026-05-06 15:11 50.10591 14.24926 1921 ft 164 kts 305°
2026-05-06 15:11 50.11297 14.23453 2623 ft 174 kts 305°
2026-05-06 15:12 50.12031 14.21926 3309 ft 189 kts 305°
2026-05-06 15:12 50.12864 14.20198 3865 ft 209 kts 305°
2026-05-06 15:12 50.13783 14.18297 4247 ft 230 kts 305°
2026-05-06 15:12 50.14791 14.16204 4587 ft 253 kts 305°
2026-05-06 15:13 50.15898 14.13904 5082 ft 271 kts 305°
2026-05-06 15:13 50.17044 14.11519 5961 ft 278 kts 304°
2026-05-06 15:13 50.18211 14.09099 6914 ft 281 kts 305°
2026-05-06 15:13 50.19404 14.06655 7788 ft 284 kts 305°
2026-05-06 15:14 50.20521 14.04113 8687 ft 286 kts 291°
2026-05-06 15:14 50.20884 14.01138 9636 ft 277 kts 265°
2026-05-06 15:14 50.20847 13.98112 10410 ft 285 kts 266°
2026-05-06 15:14 50.20832 13.94886 10675 ft 310 kts 266°
2026-05-06 15:15 50.20816 13.91409 11088 ft 327 kts 266°
2026-05-06 15:15 50.20803 13.87829 11859 ft 332 kts 266°
2026-05-06 15:15 50.20788 13.84221 12742 ft 333 kts 266°
2026-05-06 15:15 50.20772 13.80596 13624 ft 335 kts 266°
2026-05-06 15:16 50.20753 13.76941 14387 ft 337 kts 266°
2026-05-06 15:16 50.20732 13.73266 15127 ft 340 kts 266°
2026-05-06 15:16 50.20708 13.69555 15858 ft 344 kts 266°
2026-05-06 15:16 50.20682 13.65807 16602 ft 347 kts 266°
2026-05-06 15:17 50.20655 13.62032 17335 ft 350 kts 265°
2026-05-06 15:17 50.20626 13.58210 18050 ft 354 kts 265°
2026-05-06 15:17 50.20595 13.54357 18656 ft 357 kts 265°
2026-05-06 15:17 50.20562 13.50466 19301 ft 359 kts 265°
2026-05-06 15:18 50.20529 13.46554 19940 ft 362 kts 265°
2026-05-06 15:18 50.20494 13.42609 20546 ft 365 kts 265°
2026-05-06 15:18 50.20457 13.38680 21144 ft 368 kts 264°
2026-05-06 15:18 50.20418 13.34665 21750 ft 371 kts 264°
2026-05-06 15:19 50.20378 13.30630 22334 ft 374 kts 264°
2026-05-06 15:19 50.20336 13.26556 22914 ft 377 kts 264°
2026-05-06 15:19 50.20292 13.22451 23459 ft 380 kts 264°
2026-05-06 15:19 50.20246 13.18318 23924 ft 383 kts 264°
2026-05-06 15:20 50.20199 13.14148 24412 ft 385 kts 264°
2026-05-06 15:20 50.20150 13.09967 24905 ft 386 kts 264°
2026-05-06 15:20 50.20100 13.05766 25373 ft 388 kts 264°
2026-05-06 15:20 50.20047 13.01537 25827 ft 391 kts 264°
2026-05-06 15:21 50.19993 12.97276 26281 ft 393 kts 264°
2026-05-06 15:21 50.19936 12.93000 26718 ft 396 kts 264°
2026-05-06 15:21 50.19878 12.88688 27148 ft 398 kts 264°
2026-05-06 15:21 50.19817 12.84365 27571 ft 400 kts 264°
2026-05-06 15:22 50.19754 12.80010 27987 ft 402 kts 264°
2026-05-06 15:22 50.19691 12.75635 28383 ft 405 kts 264°
2026-05-06 15:22 50.19625 12.71229 28769 ft 407 kts 264°
2026-05-06 15:22 50.19557 12.66803 29152 ft 409 kts 264°
2026-05-06 15:23 50.19487 12.62352 29529 ft 411 kts 264°
2026-05-06 15:23 50.19415 12.57877 29864 ft 413 kts 264°
2026-05-06 15:23 50.19340 12.53381 30153 ft 415 kts 264°
2026-05-06 15:23 50.19264 12.48868 30454 ft 417 kts 264°
2026-05-06 15:24 50.19187 12.44343 30754 ft 418 kts 264°
2026-05-06 15:24 50.19108 12.39817 31146 ft 417 kts 264°
2026-05-06 15:24 50.19027 12.35312 31580 ft 414 kts 264°
2026-05-06 15:24 50.18964 12.30828 31985 ft 413 kts 265°
2026-05-06 15:25 50.18947 12.26400 32359 ft 413 kts 265°
2026-05-06 15:25 50.18945 12.21920 32734 ft 412 kts 265°
2026-05-06 15:25 50.18945 12.17456 33118 ft 411 kts 265°
2026-05-06 15:25 50.18940 12.13000 33519 ft 410 kts 265°
2026-05-06 15:26 50.18929 12.08557 33883 ft 408 kts 265°
2026-05-06 15:26 50.18912 12.04132 34138 ft 409 kts 265°
2026-05-06 15:26 50.18893 11.99683 34331 ft 411 kts 265°
2026-05-06 15:26 50.18871 11.95216 34553 ft 412 kts 265°
2026-05-06 15:27 50.18849 11.90747 34806 ft 412 kts 265°
2026-05-06 15:27 50.18824 11.86263 35039 ft 413 kts 265°
2026-05-06 15:27 50.18798 11.81786 35236 ft 414 kts 265°
2026-05-06 15:27 50.18819 11.77274 35443 ft 416 kts 267°
2026-05-06 15:28 50.18885 11.72757 35662 ft 417 kts 267°
2026-05-06 15:28 50.18964 11.68229 35875 ft 417 kts 268°
2026-05-06 15:28 50.19042 11.63700 36093 ft 418 kts 268°
2026-05-06 15:28 50.19114 11.59165 36295 ft 419 kts 268°
2026-05-06 15:29 50.19180 11.54618 36503 ft 419 kts 268°
2026-05-06 15:29 50.19240 11.50061 36712 ft 419 kts 268°
2026-05-06 15:29 50.19297 11.45508 36883 ft 421 kts 268°
2026-05-06 15:29 50.19350 11.40931 37034 ft 422 kts 268°
2026-05-06 15:30 50.19402 11.36346 37223 ft 423 kts 268°
2026-05-06 15:30 50.19453 11.31755 37448 ft 423 kts 268°
2026-05-06 15:30 50.19502 11.27160 37630 ft 424 kts 268°
2026-05-06 15:30 50.19548 11.22555 37748 ft 426 kts 268°
2026-05-06 15:31 50.19594 11.17913 37759 ft 429 kts 268°
2026-05-06 15:31 50.19680 11.08698 37757 ft 426 kts 268°
2026-05-06 15:32 50.19788 10.94904 37764 ft 420 kts 265°
2026-05-06 15:32 50.19173 10.85915 37759 ft 415 kts 259°
2026-05-06 15:33 50.18370 10.76993 37770 ft 415 kts 259°
2026-05-06 15:33 50.17583 10.68064 37769 ft 416 kts 259°
2026-05-06 15:34 50.16806 10.59093 37767 ft 418 kts 259°
2026-05-06 15:34 50.16022 10.50078 37767 ft 421 kts 259°
2026-05-06 15:35 50.15227 10.41001 37756 ft 424 kts 259°
2026-05-06 15:35 50.14438 10.31873 37752 ft 427 kts 263°
2026-05-06 15:36 50.14784 10.22575 37747 ft 435 kts 279°
2026-05-06 15:36 50.16425 10.13433 37751 ft 439 kts 283°
2026-05-06 15:37 50.18158 10.04296 37753 ft 440 kts 283°
2026-05-06 15:37 50.19856 9.95121 37752 ft 440 kts 282°
2026-05-06 15:38 50.21522 9.85934 37756 ft 439 kts 282°
2026-05-06 15:38 50.23169 9.76769 37751 ft 438 kts 282°
2026-05-06 15:39 50.24803 9.67629 37758 ft 436 kts 282°
2026-05-06 15:39 50.26426 9.58511 37765 ft 435 kts 282°
2026-05-06 15:40 50.28038 9.49409 37765 ft 434 kts 282°
2026-05-06 15:40 50.29640 9.40318 37767 ft 433 kts 282°
2026-05-06 15:41 50.31232 9.31235 37764 ft 433 kts 282°
2026-05-06 15:41 50.32807 9.22206 37767 ft 433 kts 282°
2026-05-06 15:42 50.34388 9.13106 37770 ft 434 kts 282°
2026-05-06 15:42 50.36141 9.04042 37778 ft 436 kts 284°
2026-05-06 15:43 50.37987 8.94976 37771 ft 437 kts 284°
2026-05-06 15:43 50.39805 8.85876 37774 ft 438 kts 283°
2026-05-06 15:44 50.41604 8.76728 37770 ft 439 kts 283°
2026-05-06 15:44 50.43400 8.67548 37771 ft 440 kts 283°
2026-05-06 15:45 50.44950 8.58290 37774 ft 436 kts 276°
2026-05-06 15:45 50.45874 8.48948 37780 ft 436 kts 275°
2026-05-06 15:46 50.46763 8.39531 37785 ft 437 kts 275°
2026-05-06 15:46 50.47678 8.30050 37264 ft 443 kts 275°
2026-05-06 15:47 50.48143 8.25287 36732 ft 440 kts 275°
2026-05-06 15:47 50.48457 8.22092 36519 ft 436 kts 275°
2026-05-06 15:47 50.48916 8.17406 36087 ft 432 kts 275°
2026-05-06 15:47 50.49368 8.12767 35695 ft 428 kts 275°
2026-05-06 15:48 50.49808 8.08225 35295 ft 424 kts 275°
2026-05-06 15:48 50.50254 8.03602 34874 ft 421 kts 275°
2026-05-06 15:48 50.50682 7.99132 34484 ft 418 kts 275°
2026-05-06 15:48 50.51112 7.94628 34086 ft 415 kts 275°
2026-05-06 15:49 50.51536 7.90165 33681 ft 412 kts 275°
2026-05-06 15:49 50.51956 7.85728 33219 ft 409 kts 275°
2026-05-06 15:49 50.52371 7.81327 32790 ft 405 kts 275°
2026-05-06 15:49 50.52781 7.76960 32399 ft 401 kts 275°
2026-05-06 15:50 50.53185 7.72638 32003 ft 398 kts 275°
2026-05-06 15:50 50.53583 7.68359 31635 ft 394 kts 275°
2026-05-06 15:50 50.53977 7.64114 31253 ft 391 kts 275°
2026-05-06 15:50 50.54366 7.59896 30876 ft 387 kts 275°
2026-05-06 15:51 50.54749 7.55724 30506 ft 384 kts 275°
2026-05-06 15:51 50.55129 7.51586 30147 ft 381 kts 275°
2026-05-06 15:51 50.55504 7.47481 29768 ft 378 kts 275°
2026-05-06 15:51 50.55859 7.43480 29360 ft 374 kts 273°
2026-05-06 15:52 50.55986 7.39431 29052 ft 366 kts 268°
2026-05-06 15:52 50.56007 7.35453 28676 ft 362 kts 268°
2026-05-06 15:52 50.56016 7.31509 28307 ft 358 kts 268°
2026-05-06 15:52 50.56033 7.27612 27951 ft 355 kts 268°
2026-05-06 15:53 50.56057 7.23746 27572 ft 352 kts 268°
2026-05-06 15:53 50.56083 7.19918 27229 ft 349 kts 268°
2026-05-06 15:53 50.56100 7.16115 26838 ft 346 kts 267°
2026-05-06 15:53 50.56032 7.12344 26476 ft 344 kts 266°
2026-05-06 15:54 50.55928 7.08603 26123 ft 342 kts 265°
2026-05-06 15:54 50.55828 7.04926 25772 ft 340 kts 266°
2026-05-06 15:54 50.55734 7.01180 25415 ft 338 kts 266°
2026-05-06 15:54 50.55648 6.97551 25077 ft 336 kts 266°
2026-05-06 15:55 50.55559 6.93844 24730 ft 334 kts 266°
2026-05-06 15:55 50.55466 6.90213 24390 ft 332 kts 266°
2026-05-06 15:55 50.55371 6.86600 24059 ft 330 kts 266°
2026-05-06 15:55 50.55276 6.83006 23725 ft 328 kts 266°
2026-05-06 15:56 50.55183 6.79475 23394 ft 327 kts 266°
2026-05-06 15:56 50.55087 6.75909 22995 ft 326 kts 266°
2026-05-06 15:56 50.54990 6.72365 22627 ft 323 kts 266°
2026-05-06 15:56 50.54968 6.68838 22287 ft 321 kts 272°
2026-05-06 15:57 50.55293 6.65371 21967 ft 319 kts 279°
2026-05-06 15:57 50.55718 6.61951 21619 ft 318 kts 279°
2026-05-06 15:57 50.56151 6.58556 21284 ft 316 kts 279°
2026-05-06 15:57 50.56578 6.55177 20952 ft 314 kts 279°
2026-05-06 15:58 50.56996 6.51816 20632 ft 312 kts 279°
2026-05-06 15:58 50.57407 6.48471 20304 ft 311 kts 279°
2026-05-06 15:58 50.57811 6.45147 19985 ft 309 kts 279°
2026-05-06 15:58 50.58212 6.41832 19658 ft 308 kts 279°
2026-05-06 15:59 50.58608 6.38536 19343 ft 306 kts 279°
2026-05-06 15:59 50.59003 6.35249 19026 ft 305 kts 279°
2026-05-06 15:59 50.59394 6.31976 18714 ft 304 kts 279°
2026-05-06 15:59 50.59783 6.28712 18397 ft 303 kts 279°
2026-05-06 16:00 50.60170 6.25461 18077 ft 302 kts 279°
2026-05-06 16:00 50.60553 6.22223 17721 ft 301 kts 279°
2026-05-06 16:00 50.60934 6.18991 17379 ft 299 kts 279°
2026-05-06 16:00 50.61313 6.15782 17066 ft 297 kts 281°
2026-05-06 16:01 50.61924 6.12670 16643 ft 299 kts 290°
2026-05-06 16:01 50.62707 6.09633 16401 ft 299 kts 291°
2026-05-06 16:01 50.63511 6.06611 16144 ft 299 kts 292°
2026-05-06 16:01 50.64319 6.03585 15902 ft 300 kts 292°
2026-05-06 16:02 50.65123 6.00568 15657 ft 297 kts 292°
2026-05-06 16:02 50.65918 5.97574 15356 ft 295 kts 292°
2026-05-06 16:02 50.66702 5.94607 15046 ft 293 kts 292°
2026-05-06 16:02 50.67482 5.91648 14737 ft 292 kts 292°
2026-05-06 16:03 50.68257 5.88701 14438 ft 290 kts 292°
2026-05-06 16:03 50.69027 5.85765 14144 ft 289 kts 292°
2026-05-06 16:03 50.69795 5.82836 13843 ft 288 kts 292°
2026-05-06 16:03 50.70545 5.79965 13525 ft 287 kts 292°
2026-05-06 16:04 50.71332 5.77054 13054 ft 290 kts 294°
2026-05-06 16:04 50.72140 5.74142 12718 ft 288 kts 294°
2026-05-06 16:04 50.72947 5.71248 12392 ft 287 kts 295°
2026-05-06 16:04 50.73747 5.68374 12075 ft 286 kts 295°
2026-05-06 16:05 50.74543 5.65503 11760 ft 284 kts 295°
2026-05-06 16:05 50.75331 5.62653 11454 ft 283 kts 295°
2026-05-06 16:05 50.76116 5.59809 11159 ft 282 kts 295°
2026-05-06 16:05 50.76899 5.56970 10856 ft 282 kts 295°
2026-05-06 16:06 50.77679 5.54130 10557 ft 283 kts 295°
2026-05-06 16:06 50.78468 5.51257 10256 ft 286 kts 295°
2026-05-06 16:06 50.79257 5.48378 10027 ft 284 kts 295°
2026-05-06 16:06 50.80030 5.45552 9865 ft 277 kts 295°
2026-05-06 16:07 50.80793 5.42760 9564 ft 276 kts 295°
2026-05-06 16:07 50.81551 5.39984 9267 ft 274 kts 295°
2026-05-06 16:07 50.82301 5.37232 8985 ft 271 kts 295°
2026-05-06 16:07 50.83044 5.34504 8695 ft 269 kts 295°
2026-05-06 16:08 50.83783 5.31786 8404 ft 267 kts 295°
2026-05-06 16:08 50.84506 5.29126 8134 ft 265 kts 295°
2026-05-06 16:08 50.85231 5.26452 7857 ft 264 kts 295°
2026-05-06 16:08 50.85953 5.23791 7577 ft 262 kts 295°
2026-05-06 16:09 50.86669 5.21147 7307 ft 261 kts 295°
2026-05-06 16:09 50.87380 5.18517 7040 ft 260 kts 295°
2026-05-06 16:09 50.88089 5.15890 6763 ft 258 kts 295°
2026-05-06 16:09 50.88794 5.13279 6495 ft 257 kts 295°
2026-05-06 16:10 50.89496 5.10675 6219 ft 256 kts 295°
2026-05-06 16:10 50.90193 5.08086 5957 ft 254 kts 295°
2026-05-06 16:10 50.90884 5.05517 5898 ft 253 kts 295°
2026-05-06 16:10 50.91565 5.02978 5876 ft 246 kts 295°
2026-05-06 16:11 50.92221 5.00532 5780 ft 237 kts 295°
2026-05-06 16:11 50.92861 4.98145 5522 ft 236 kts 295°
2026-05-06 16:11 50.93517 4.95697 5006 ft 245 kts 295°
2026-05-06 16:11 50.94188 4.93192 4656 ft 248 kts 295°
2026-05-06 16:12 50.94859 4.90681 4359 ft 247 kts 295°
2026-05-06 16:12 50.95521 4.88200 4197 ft 237 kts 295°
2026-05-06 16:12 50.96138 4.85881 4085 ft 220 kts 295°
2026-05-06 16:12 50.96711 4.83723 3940 ft 205 kts 296°
2026-05-06 16:13 50.97246 4.81710 3772 ft 193 kts 296°
2026-05-06 16:13 50.97753 4.79801 3671 ft 181 kts 296°
2026-05-06 16:13 50.98233 4.77992 3495 ft 175 kts 296°
2026-05-06 16:13 50.98585 4.76162 3278 ft 177 kts 271°
2026-05-06 16:14 50.98172 4.74317 3188 ft 181 kts 247°
2026-05-06 16:14 50.97633 4.72460 2973 ft 187 kts 249°
2026-05-06 16:14 50.97099 4.70586 2773 ft 183 kts 249°
2026-05-06 16:14 50.96594 4.68828 2599 ft 169 kts 249°
2026-05-06 16:15 50.96122 4.67191 2402 ft 160 kts 249°
2026-05-06 16:15 50.95674 4.65588 2275 ft 158 kts 250°
2026-05-06 16:15 50.95217 4.63972 2118 ft 164 kts 250°
2026-05-06 16:15 50.94743 4.62328 1853 ft 164 kts 249°
2026-05-06 16:16 50.94269 4.60707 1594 ft 161 kts 249°
2026-05-06 16:16 50.93808 4.59115 1406 ft 157 kts 249°
2026-05-06 16:16 50.93353 4.57534 1203 ft 159 kts 249°
2026-05-06 16:16 50.92888 4.55926 963 ft 160 kts 248°
2026-05-06 16:17 50.92426 4.54334 740 ft 159 kts 248°
2026-05-06 16:17 50.91969 4.52756 582 ft 158 kts 248°
2026-05-06 16:17 50.91505 4.51156 365 ft 161 kts 248°
2026-05-06 16:17 50.91045 4.49541 198 ft 159 kts 248°
2026-05-06 16:18 50.90622 4.48083 193 ft 126 kts 245°
2026-05-06 16:18 50.90332 4.47087 183 ft 53 kts 245°
2026-05-06 16:18 50.90199 4.46799 182 ft 21 kts 220°
2026-05-06 16:18 50.90113 4.46695 184 ft 11 kts 207°
2026-05-06 16:19 50.90060 4.46751 184 ft 11 kts 92°
2026-05-06 16:19 50.90090 4.46859 184 ft 11 kts 64°
2026-05-06 16:19 50.90121 4.46962 184 ft 10 kts 64°
2026-05-06 16:19 50.90151 4.47063 184 ft 10 kts 67°
2026-05-06 16:20 50.90157 4.47166 184 ft 10 kts 114°
2026-05-06 16:20 50.90134 4.47264 184 ft 9 kts 93°
2026-05-06 16:20 50.90154 4.47361 184 ft 9 kts 66°
2026-05-06 16:20 50.90181 4.47456 184 ft 11 kts 65°
2026-05-06 16:21 50.90218 4.47581 184 ft 14 kts 65°
2026-05-06 16:21 50.90261 4.47731 184 ft 15 kts 66°
2026-05-06 16:21 50.90303 4.47878 184 ft 14 kts 65°
2026-05-06 16:21 50.90344 4.48018 184 ft 14 kts 65°
2026-05-06 16:22 50.90383 4.48151 184 ft 13 kts 65°
2026-05-06 16:22 50.90419 4.48275 184 ft 9 kts 67°
2026-05-06 16:22 50.90388 4.48343 184 ft 9 kts 155°
2026-05-06 16:22 50.90355 4.48367 184 ft 3 kts 155°
2026-05-06 16:23 50.90345 4.48374 184 ft 0 kts 155°